Regional Weather Roundup
Issued by NWS Charleston, SC

Current Version | Previous Version | Graphics & Text | Print | Product List | Glossary On
Versions: 1 2 3 4 5 6 7 8 9 10 11 12 13 14 15 16 17 18 19 20 21 22 23 24 25 26 27 28 29 30 31 32 33 34 35 36 37 38 39 40 41 42 43 44 45 46 47 48 49 50
000 ASUS42 KCHS 181825 RWRCHS REGIONAL WEATHER ROUNDUP NATIONAL WEATHER SERVICE CHARLESTON SC 100 PM EST THU DEC 18 2014 NOTE: "FAIR" INDICATES FEW OR NO CLOUDS BELOW 12,000 FEET WITH NO SIGNIFICANT WEATHER AND/OR OBSTRUCTIONS TO VISIBILITY. NOT ALL STATIONS ARE QUALITY CONTROLLED BY THE NATIONAL WEATHER SERVICE. USE DATA WITH CAUTION...ESPECIALLY DEWPOINT OBSERVATIONS. SCZ027-030-031-034>040-042>050-181900- ...SOUTHEAST SOUTH CAROLINA... CITY SKY/WX TMP DP RH WIND PRES REMARKS N CHARLESTON MOSUNNY 61 41 47 VRB3 30.10F 6HR MIN TEMP: 40; 6HR MAX TEMP: 62; WATERFRONT PRK N/A 59 N/A N/A E8 N/A MOUNT PLEASANT LGT RAIN 61 45 55 CALM 30.10F PINOPOLIS N/A 55 45 67 NW6 30.05F MONCKS CORNER FAIR 61 43 51 CALM 30.09F SUMMERVILLE FAIR 63 45 51 NE3 30.09F BEAUFORT MCAS MOSUNNY 60 43 53 E7 30.10F 6HR MIN TEMP: 41; 6HR MAX TEMP: 60; BEAUFORT ARPT FAIR 59 45 58 S3 30.09F HILTON HEAD IS SUNNY 54 45 71 CALM 30.12F WALTERBORO CLEAR 63 36 36 E5 30.10F ALLENDALE FAIR 59 43 55 CALM 30.09F ...SOUTHERN MIDLANDS AND PEE DEE... CITY SKY/WX TMP DP RH WIND PRES REMARKS GEORGETOWN NOT AVBL KINGSTREE NOT AVBL ORANGEBURG SUNNY 59 37 44 NE5 30.11F 6HR MIN TEMP: 35; 6HR MAX TEMP: 59; BARNWELL FAIR 61 43 51 CALM 30.10F AIKEN FAIR 57 37 47 CALM 30.13F MANNING NOT AVBL COLUMBIA PTSUNNY 57 29 34 SE6 30.12F 6HR MIN TEMP: 35; 6HR MAX TEMP: 57; SUMTER MOSUNNY 56 27 32 E1 30.11F 6HR MIN TEMP: 35; 6HR MAX TEMP: 57; 6HR PCP: TRACE; FLORENCE SUNNY 56 26 31 E6 30.12F 6HR MIN TEMP: 37; 6HR MAX TEMP: 57; MYRTLE BEACH SUNNY 57 32 38 SE10 30.13F N MYRTLE BEACH SUNNY 57 30 35 VRB3 30.12F 6HR MIN TEMP: 37; 6HR MAX TEMP: 57; $$ GAZ063-065-086>088-099>101-113>116-118-119-134>141-150-181900- ...SOUTHEAST GEORGIA... CITY SKY/WX TMP DP RH WIND PRES REMARKS SAVANNAH ARPT MOSUNNY 60 38 43 NW3 30.11F 6HR MIN TEMP: 42; 6HR MAX TEMP: 88; HUNTER AAF MOSUNNY 58 40 51 SW5 30.10F 6HR MIN TEMP: 40; 6HR MAX TEMP: 58; FORT STEWART MOSUNNY 58 37 45 VRB3 30.10F 6HR MIN TEMP: 39; 6HR MAX TEMP: 59; 6HR PCP: TRACE; STATESBORO SUNNY 58 41 53 CALM 30.11F SYLVANIA CLEAR 59 44 55 CALM 30.11F CLAXTON FAIR 59 41 51 W5 30.11F ...CSRA...CENTRAL AND FAR SOUTHEAST GEORGIA... CITY SKY/WX TMP DP RH WIND PRES REMARKS THOMSON MOSUNNY 59 42 52 CALM 30.15F AUGUSTA-BUSH MOSUNNY 58 39 49 VRB3 30.12F 6HR MIN TEMP: 32; 6HR MAX TEMP: 58; AUGUSTA-DANIEL MOSUNNY 58 40 51 E3 30.12F SWAINSBORO FAIR 61 45 55 NW5 30.12F VIDALIA SUNNY 59 39 47 CALM 30.11F EASTMAN FAIR 60 36 40 SW3 30.14F HAZLEHURST FAIR 62 37 39 CALM 30.10F ALMA SUNNY 60 35 39 CALM 30.13F 6HR MIN TEMP: 41; 6HR MAX TEMP: 60; WAYCROSS MOSUNNY 63 40 42 W3 30.13F JESUP FAIR 63 39 42 W5 30.12F BAXLEY FAIR 61 34 36 W5 30.11F BRUNSWICK MOSUNNY 63 36 36 W6 30.12F SAINT SIMONS PTSUNNY 57 41 55 SW7 30.13F 6HR MIN TEMP: 42; 6HR MAX TEMP: 57; $$ SCZ027-028-034-036>038-045-046-048>050-GAZ119-141-181900- ...LAKE AND SUPPLEMENTAL COASTAL OBSERVATIONS... STATION/POSITION TIME TEMP WIND PRES WAVE SWELL AIR SEA DIR/SP/G HT/PER HT/PER/DIR (UTC) (F) (DEG/KT/KT) (MB) (FT/S) (FT/S/D) UPR LAKE MARION NOT AVBL WINYAH BAY 1800 51 60/ 10 1020.0S LAKE MURRAY 1800 53 90/ 4/ 6 1019.6F ACE BASIN NERRS 1800 60 180/ 1 1020.0S FORT PULASKI 1800 53 56 300/ 3/ 3 1019.9F SAPELO ISLAND 1800 57 230/ 4 1020.0S $$ ANZ835-935-AMZ111-154-330-350-352-354-370-450-454-472-181900- ...C-MAN AND BUOY OBSERVATIONS... STATION/POSITION TIME TEMP WIND PRES WAVE SWELL AIR SEA DIR/SP/G HT/PER HT/PER/DIR (UTC) (F) (DEG/KT/KT) (MB) (FT/S) (FT/S/D) BUOY 41004 1800 60 73 340/ 2/ 6 1019.2F 1/ 7 2/ 7 BUOY 41008 1800 51 58 270/ 4/ 8 1020.3F 1/10 2/100/10 FOLLY BEACH CMAN 1800 56 80/ 7/ 8 1020.0F CAPERS NEARSHORE 1700 53 60/ 8/ 10 N/A FRIPP NEARSHORE NOT AVBL STATION/POSITION TIME TEMP WIND PRES WAVE SWELL AIR SEA DIR/SP/G HT/PER HT/PER/DIR (UTC) (F) (DEG/KT/KT) (MB) (FT/S) (FT/S/D) 5E ST. MARYS GA 1800 61 N/A 1/10 FRYING PAN BUOY 1800 55 65 50/ 10/ 12 1020.0F 3/ 4 2/ 20/ 4 BUOY 41025 1800 48 1019.7F 3/ 5 CAPE LOOKOUT NC 1800 48 40/ 10/ 11 1019.3F BUOY 41002 1712 69 72 330/ 8/ 14 1018.0F 3/ 6 3/250/ 6 BUOY 41010 1800 72 76 280/ 12/ 14 1019.6F 2/11 2/ 60/11 ST AUGUSTINE FL 1800 58 20/ 4/ 4 1021.2F $$

USA.gov is the U.S. government's official web portal to all federal, state and local government web resources and services.